Find Starlink 3366

NORAD ID: 51104 Int'l Des: 2022-005 Owner: SPXS Country: US Constellation: starlink operational
LEOCIRCULAR

Live Position

Loading 3D Globe...

About Starlink 3366

Description loading...

Upcoming Passes

Passes for default location (London). Set your location on the main map for personalized predictions.

Altitude History

Loading altitude history...

Two-Line Element Set

1 51104U 22005A 26126.43462450 .00000355 00000-0 40416-4 0 9997
2 51104 53.2184 29.8939 0001459 87.8125 272.3034 15.08842716237595
Epoch: May 6, 2026 • Age: 11 hours

Current Status

Altitude 543.1 km
Velocity 7.60 km/s
Sub-Earth Point 42.87°N, 120.58°W
Launch Date Jan 19, 2022
Age 4.2 years
Type internet

Technical Details

Classification Payload
Mass 297.00 kg
Dry Mass 275.00 kg
Total Mass 297.00 kg
Length 0.20 m
Diameter 2.80 m
Span 9.00 m
Shape Box + pan
Manufacturer SPXS
Bus Type Starlink
Phase Status In Orbit
Owner/State SPXS/US

Most Searched